User: anonymous   Login
Location: Arrington
(35.8681°N, 86.7092°W)
Time: 13:37:19
(UTC+00:00)
Language:

STARLINK 1032 - Orbit

View from above orbital plane
View from above orbital plane
View from above satellite
View from above satellite

Ground track
Ground track

The orbit data is extracted from the following two-line orbital elements,

1 44737U 19074AA  20022.25001157 -.00048012  00000-0 -13506-2 0  9997
2 44737  53.0060 176.9070 0001419  76.4698 143.3153 15.35934883 11265
Epoch (UTC): 22 January 2020 06:00:01
Eccentricity: 0.0001419
inclination: 53.0060°
perigee height: 457 km
apogee height: 459 km
right ascension of ascending node: 176.9070°
argument of perigee: 76.4698°
revolutions per day: 15.35934883
mean anomaly at epoch: 143.3153°
orbit number at epoch: 1126

The dashed part of the orbit path shows where the satellite is in the earth's shadow,  

DLR